Year,Month,Day,Hour,Minute,Value (Times are PST for temperature in C)
2018,09,16,00,00,0.10
2018,09,16,00,01,0.10
2018,09,16,00,02,0.00
2018,09,16,00,03,0.00
2018,09,16,00,04,0.00
2018,09,16,00,05,0.00
2018,09,16,00,06,-0.10
2018,09,16,00,07,-0.10
2018,09,16,00,08,-0.10
2018,09,16,00,09,-0.10
2018,09,16,00,10,-0.10
2018,09,16,00,11,-0.10
2018,09,16,00,12,-0.10
2018,09,16,00,13,-0.10
2018,09,16,00,14,-0.10
2018,09,16,00,15,-0.10
2018,09,16,00,16,-0.10
2018,09,16,00,17,-0.10
2018,09,16,00,18,-0.10
2018,09,16,00,19,-0.10
2018,09,16,00,20,-0.10
2018,09,16,00,21,-0.10
2018,09,16,00,22,-0.20
2018,09,16,00,23,-0.20
2018,09,16,00,24,-0.20
2018,09,16,00,25,-0.20
2018,09,16,00,26,-0.20
2018,09,16,00,27,-0.20
2018,09,16,00,28,-0.20
2018,09,16,00,29,-0.20
2018,09,16,00,30,-0.20
2018,09,16,00,31,-0.20
2018,09,16,00,32,-0.20
2018,09,16,00,33,-0.20
2018,09,16,00,34,-0.20
2018,09,16,00,35,-0.20
2018,09,16,00,36,-0.20
2018,09,16,00,37,-0.20
2018,09,16,00,38,-0.20
2018,09,16,00,39,-0.20
2018,09,16,00,40,-0.20
2018,09,16,00,41,-0.20
2018,09,16,00,42,-0.20
2018,09,16,00,43,-0.20
2018,09,16,00,44,-0.20
2018,09,16,00,45,-0.20
2018,09,16,00,46,-0.20
2018,09,16,00,47,-0.10
2018,09,16,00,48,-0.10
2018,09,16,00,49,-0.10
2018,09,16,00,50,-0.10
2018,09,16,00,51,-0.10
2018,09,16,00,52,0.00
2018,09,16,00,53,0.00
2018,09,16,00,54,0.00
2018,09,16,00,55,0.10
2018,09,16,00,56,0.10
2018,09,16,00,57,0.10
2018,09,16,00,58,0.10
2018,09,16,00,59,0.10
2018,09,16,01,00,0.10
2018,09,16,01,01,0.00
2018,09,16,01,02,0.00
2018,09,16,01,03,0.00
2018,09,16,01,04,0.00
2018,09,16,01,05,0.00
2018,09,16,01,06,0.00
2018,09,16,01,07,0.00
2018,09,16,01,08,-0.10
2018,09,16,01,09,-0.10
2018,09,16,01,10,-0.10
2018,09,16,01,11,-0.10
2018,09,16,01,12,-0.10
2018,09,16,01,13,-0.10
2018,09,16,01,14,-0.10
2018,09,16,01,15,-0.10
2018,09,16,01,16,-0.20
2018,09,16,01,17,-0.20
2018,09,16,01,18,-0.20
2018,09,16,01,19,-0.20
2018,09,16,01,20,-0.20
2018,09,16,01,21,-0.20
2018,09,16,01,22,-0.20
2018,09,16,01,23,-0.20
2018,09,16,01,24,-0.20
2018,09,16,01,25,-0.20
2018,09,16,01,26,-0.20
2018,09,16,01,27,-0.20
2018,09,16,01,28,-0.20
2018,09,16,01,29,-0.20
2018,09,16,01,30,-0.20
2018,09,16,01,31,-0.30
2018,09,16,01,32,-0.30
2018,09,16,01,33,-0.30
2018,09,16,01,34,-0.30
2018,09,16,01,35,-0.30
2018,09,16,01,36,-0.30
2018,09,16,01,37,-0.40
2018,09,16,01,38,-0.40
2018,09,16,01,39,-0.40
2018,09,16,01,40,-0.40
2018,09,16,01,41,-0.40
2018,09,16,01,42,-0.40
2018,09,16,01,43,-0.50
2018,09,16,01,44,-0.50
2018,09,16,01,45,-0.50
2018,09,16,01,46,-0.50
2018,09,16,01,47,-0.60
2018,09,16,01,48,-0.60
2018,09,16,01,49,-0.60
2018,09,16,01,50,-0.60
2018,09,16,01,51,-0.60
2018,09,16,01,52,-0.60
2018,09,16,01,53,-0.70
2018,09,16,01,54,-0.70
2018,09,16,01,55,-0.70
2018,09,16,01,56,-0.70
2018,09,16,01,57,-0.70
2018,09,16,01,58,-0.70
2018,09,16,01,59,-0.70
2018,09,16,02,00,-0.70
2018,09,16,02,01,-0.80
2018,09,16,02,02,-0.80
2018,09,16,02,03,-0.80
2018,09,16,02,04,-0.80
2018,09,16,02,05,-0.80
2018,09,16,02,06,-0.80
2018,09,16,02,07,-0.80
2018,09,16,02,08,-0.80
2018,09,16,02,09,-0.80
2018,09,16,02,10,-0.80
2018,09,16,02,11,-0.80
2018,09,16,02,12,-0.90
2018,09,16,02,13,-0.90
2018,09,16,02,14,-0.90
2018,09,16,02,15,-0.90
2018,09,16,02,16,-0.90
2018,09,16,02,17,-0.90
2018,09,16,02,18,-1.00
2018,09,16,02,19,-1.00
2018,09,16,02,20,-1.00
2018,09,16,02,21,-1.00
2018,09,16,02,22,-1.10
2018,09,16,02,23,-1.10
2018,09,16,02,24,-1.10
2018,09,16,02,25,-1.10
2018,09,16,02,26,-1.10
2018,09,16,02,27,-1.10
2018,09,16,02,28,-1.20
2018,09,16,02,29,-1.20
2018,09,16,02,30,-1.20
2018,09,16,02,31,-1.20
2018,09,16,02,32,-1.20
2018,09,16,02,33,-1.20
2018,09,16,02,34,-1.20
2018,09,16,02,35,-1.20
2018,09,16,02,36,-1.20
2018,09,16,02,37,-1.20
2018,09,16,02,38,-1.20
2018,09,16,02,39,-1.20
2018,09,16,02,40,-1.30
2018,09,16,02,41,-1.30
2018,09,16,02,42,-1.30
2018,09,16,02,43,-1.30
2018,09,16,02,44,-1.30
2018,09,16,02,45,-1.30
2018,09,16,02,46,-1.30
2018,09,16,02,47,-1.30
2018,09,16,02,48,-1.40
2018,09,16,02,49,-1.40
2018,09,16,02,50,-1.40
2018,09,16,02,51,-1.40
2018,09,16,02,52,-1.40
2018,09,16,02,53,-1.40
2018,09,16,02,54,-1.50
2018,09,16,02,55,-1.50
2018,09,16,02,56,-1.50
2018,09,16,02,57,-1.50
2018,09,16,02,58,-1.50
2018,09,16,02,59,-1.50
2018,09,16,03,00,-1.50
2018,09,16,03,01,-1.50
2018,09,16,03,02,-1.50
2018,09,16,03,03,-1.60
2018,09,16,03,04,-1.60
2018,09,16,03,05,-1.60
2018,09,16,03,06,-1.60
2018,09,16,03,07,-1.60
2018,09,16,03,08,-1.60
2018,09,16,03,09,-1.70
2018,09,16,03,10,-1.70
2018,09,16,03,11,-1.70
2018,09,16,03,12,-1.70
2018,09,16,03,13,-1.70
2018,09,16,03,14,-1.80
2018,09,16,03,15,-1.80
2018,09,16,03,16,-1.80
2018,09,16,03,17,-1.80
2018,09,16,03,18,-1.80
2018,09,16,03,19,-1.80
2018,09,16,03,20,-1.80
2018,09,16,03,21,-1.90
2018,09,16,03,22,-1.90
2018,09,16,03,23,-1.90
2018,09,16,03,24,-1.90
2018,09,16,03,25,-1.90
2018,09,16,03,26,-1.90
2018,09,16,03,27,-1.90
2018,09,16,03,28,-1.90
2018,09,16,03,29,-2.00
2018,09,16,03,30,-2.00
2018,09,16,03,31,-2.00
2018,09,16,03,32,-2.00
2018,09,16,03,33,-2.00
2018,09,16,03,34,-2.00
2018,09,16,03,35,-2.00
2018,09,16,03,36,-2.00
2018,09,16,03,37,-2.00
2018,09,16,03,38,-2.10
2018,09,16,03,39,-2.10
2018,09,16,03,40,-2.10
2018,09,16,03,41,-2.10
2018,09,16,03,42,-2.10
2018,09,16,03,43,-2.10
2018,09,16,03,44,-2.10
2018,09,16,03,45,-2.10
2018,09,16,03,46,-2.10
2018,09,16,03,47,-2.10
2018,09,16,03,48,-2.10
2018,09,16,03,49,-2.10
2018,09,16,03,50,-2.10
2018,09,16,03,51,-2.10
2018,09,16,03,52,-2.10
2018,09,16,03,53,-2.10
2018,09,16,03,54,-2.10
2018,09,16,03,55,-2.10
2018,09,16,03,56,-2.10
2018,09,16,03,57,-2.10
2018,09,16,03,58,-2.10
2018,09,16,03,59,-2.10
2018,09,16,04,00,-2.10
2018,09,16,04,01,-2.10
2018,09,16,04,02,-2.10
2018,09,16,04,03,-2.10
2018,09,16,04,04,-2.00
2018,09,16,04,05,-2.00
2018,09,16,04,06,-2.00
2018,09,16,04,07,-2.00
2018,09,16,04,08,-2.00
2018,09,16,04,09,-2.00
2018,09,16,04,10,-2.00
2018,09,16,04,11,-2.00
2018,09,16,04,12,-2.00
2018,09,16,04,13,-2.00
2018,09,16,04,14,-2.00
2018,09,16,04,15,-2.00
2018,09,16,04,16,-2.00
2018,09,16,04,17,-2.00
2018,09,16,04,18,-2.00
2018,09,16,04,19,-2.00
2018,09,16,04,20,-2.00
2018,09,16,04,21,-2.00
2018,09,16,04,22,-2.00
2018,09,16,04,23,-2.00
2018,09,16,04,24,-2.00
2018,09,16,04,25,-2.10
2018,09,16,04,26,-2.10
2018,09,16,04,27,-2.00
2018,09,16,04,28,-2.00
2018,09,16,04,29,-2.00
2018,09,16,04,30,-2.00
2018,09,16,04,31,-2.00
2018,09,16,04,32,-2.00
2018,09,16,04,33,-2.00
2018,09,16,04,34,-2.00
2018,09,16,04,35,-2.00
2018,09,16,04,36,-2.00
2018,09,16,04,37,-2.10
2018,09,16,04,38,-2.10
2018,09,16,04,39,-2.10
2018,09,16,04,40,-2.10
2018,09,16,04,41,-2.10
2018,09,16,04,42,-2.10
2018,09,16,04,43,-2.10
2018,09,16,04,44,-2.10
2018,09,16,04,45,-2.10
2018,09,16,04,46,-2.10
2018,09,16,04,47,-2.10
2018,09,16,04,48,-2.10
2018,09,16,04,49,-2.10
2018,09,16,04,50,-2.10
2018,09,16,04,51,-2.10
2018,09,16,04,52,-2.10
2018,09,16,04,53,-2.10
2018,09,16,04,54,-2.10
2018,09,16,04,55,-2.10
2018,09,16,04,56,-2.10
2018,09,16,04,57,-2.10
2018,09,16,04,58,-2.10
2018,09,16,04,59,-2.10
2018,09,16,05,00,-2.10
2018,09,16,05,01,-2.10
2018,09,16,05,02,-2.10
2018,09,16,05,03,-2.10
2018,09,16,05,04,-2.10
2018,09,16,05,05,-2.10
2018,09,16,05,06,-2.10
2018,09,16,05,07,-2.10
2018,09,16,05,08,-2.20
2018,09,16,05,09,-2.20
2018,09,16,05,10,-2.20
2018,09,16,05,11,-2.20
2018,09,16,05,12,-2.20
2018,09,16,05,13,-2.20
2018,09,16,05,14,-2.20
2018,09,16,05,15,-2.20
2018,09,16,05,16,-2.20
2018,09,16,05,17,-2.20
2018,09,16,05,18,-2.20
2018,09,16,05,19,-2.20
2018,09,16,05,20,-2.20
2018,09,16,05,21,-2.20
2018,09,16,05,22,-2.20
2018,09,16,05,23,-2.20
2018,09,16,05,24,-2.20
2018,09,16,05,25,-2.20
2018,09,16,05,26,-2.30
2018,09,16,05,27,-2.20
2018,09,16,05,28,-2.20
2018,09,16,05,29,-2.20
2018,09,16,05,30,-2.20
2018,09,16,05,31,-2.20
2018,09,16,05,32,-2.20
2018,09,16,05,33,-2.20
2018,09,16,05,34,-2.20
2018,09,16,05,35,-2.20
2018,09,16,05,36,-2.20
2018,09,16,05,37,-2.30
2018,09,16,05,38,-2.30
2018,09,16,05,39,-2.30
2018,09,16,05,40,-2.30
2018,09,16,05,41,-2.30
2018,09,16,05,42,-2.40
2018,09,16,05,43,-2.40
2018,09,16,05,44,-2.40
2018,09,16,05,45,-2.40
2018,09,16,05,46,-2.40
2018,09,16,05,47,-2.50
2018,09,16,05,48,-2.50
2018,09,16,05,49,-2.50
2018,09,16,05,50,-2.50
2018,09,16,05,51,-2.50
2018,09,16,05,52,-2.50
2018,09,16,05,53,-2.50
2018,09,16,05,54,-2.50
2018,09,16,05,55,-2.60
2018,09,16,05,56,-2.60
2018,09,16,05,57,-2.60
2018,09,16,05,58,-2.60
2018,09,16,05,59,-2.60
2018,09,16,06,00,-2.70
2018,09,16,06,01,-2.70
2018,09,16,06,02,-2.70
2018,09,16,06,03,-2.70
2018,09,16,06,04,-2.60
2018,09,16,06,05,-2.60
2018,09,16,06,06,-2.60
2018,09,16,06,07,-2.60
2018,09,16,06,08,-2.60
2018,09,16,06,09,-2.60
2018,09,16,06,10,-2.60
2018,09,16,06,11,-2.60
2018,09,16,06,12,-2.60
2018,09,16,06,13,-2.60
2018,09,16,06,14,-2.60
2018,09,16,06,15,-2.60
2018,09,16,06,16,-2.60
2018,09,16,06,17,-2.60
2018,09,16,06,18,-2.60
2018,09,16,06,19,-2.70
2018,09,16,06,20,-2.70
2018,09,16,06,21,-2.70
2018,09,16,06,22,-2.70
2018,09,16,06,23,-2.70
2018,09,16,06,24,-2.70
2018,09,16,06,25,-2.70
2018,09,16,06,26,-2.70
2018,09,16,06,27,-2.70
2018,09,16,06,28,-2.70
2018,09,16,06,29,-2.70
2018,09,16,06,30,-2.70
2018,09,16,06,31,-2.70
2018,09,16,06,32,-2.70
2018,09,16,06,33,-2.70
2018,09,16,06,34,-2.70
2018,09,16,06,35,-2.70
2018,09,16,06,36,-2.80
2018,09,16,06,37,-2.80
2018,09,16,06,38,-2.80
2018,09,16,06,39,-2.80
2018,09,16,06,40,-2.80
2018,09,16,06,41,-2.80
2018,09,16,06,42,-2.80
2018,09,16,06,43,-2.80
2018,09,16,06,44,-2.80
2018,09,16,06,45,-2.80
2018,09,16,06,46,-2.80
2018,09,16,06,47,-2.80
2018,09,16,06,48,-2.80
2018,09,16,06,49,-2.80
2018,09,16,06,50,-2.90
2018,09,16,06,51,-2.90
2018,09,16,06,52,-2.90
2018,09,16,06,53,-2.90
2018,09,16,06,54,-2.90
2018,09,16,06,55,-2.90
2018,09,16,06,56,-3.00
2018,09,16,06,57,-3.00
2018,09,16,06,58,-3.00
2018,09,16,06,59,-3.00
2018,09,16,07,00,-3.00
2018,09,16,07,01,-3.00
2018,09,16,07,02,-3.00
2018,09,16,07,03,-3.00
2018,09,16,07,04,-3.10
2018,09,16,07,05,-3.10
2018,09,16,07,06,-3.10
2018,09,16,07,07,-3.10
2018,09,16,07,08,-3.10
2018,09,16,07,09,-3.10
2018,09,16,07,10,-3.10
2018,09,16,07,11,-3.10
2018,09,16,07,12,-3.10
2018,09,16,07,13,-3.10
2018,09,16,07,14,-3.10
2018,09,16,07,15,-3.10
2018,09,16,07,16,-3.10
2018,09,16,07,17,-3.10
2018,09,16,07,18,-3.10
2018,09,16,07,19,-3.20
2018,09,16,07,20,-3.20
2018,09,16,07,21,-3.20
2018,09,16,07,22,-3.20
2018,09,16,07,23,-3.20
2018,09,16,07,24,-3.20
2018,09,16,07,25,-3.20
2018,09,16,07,26,-3.20
2018,09,16,07,27,-3.20
2018,09,16,07,28,-3.20
2018,09,16,07,29,-3.20
2018,09,16,07,30,-3.20
2018,09,16,07,31,-3.20
2018,09,16,07,32,-3.20
2018,09,16,07,33,-3.20
2018,09,16,07,34,-3.20
2018,09,16,07,35,-3.20
2018,09,16,07,36,-3.20
2018,09,16,07,37,-3.20
2018,09,16,07,38,-3.20
2018,09,16,07,39,-3.20
2018,09,16,07,40,-3.20
2018,09,16,07,41,-3.20
2018,09,16,07,42,-3.20
2018,09,16,07,43,-3.30
2018,09,16,07,44,-3.30
2018,09,16,07,45,-3.30
2018,09,16,07,46,-3.30
2018,09,16,07,47,-3.30
2018,09,16,07,48,-3.30
2018,09,16,07,49,-3.30
2018,09,16,07,50,-3.30
2018,09,16,07,51,-3.30
2018,09,16,07,52,-3.40
2018,09,16,07,53,-3.40
2018,09,16,07,54,-3.40
2018,09,16,07,55,-3.40
2018,09,16,07,56,-3.40
2018,09,16,07,57,-3.40
2018,09,16,07,58,-3.40
2018,09,16,07,59,-3.40
2018,09,16,08,00,-3.40
2018,09,16,08,01,-3.40
2018,09,16,08,02,-3.40
2018,09,16,08,03,-3.40
2018,09,16,08,04,-3.40
2018,09,16,08,05,-3.40
2018,09,16,08,06,-3.40
2018,09,16,08,07,-3.40
2018,09,16,08,08,-3.40
2018,09,16,08,09,-3.40
2018,09,16,08,10,-3.40
2018,09,16,08,11,-3.40
2018,09,16,08,12,-3.40
2018,09,16,08,13,-3.40
2018,09,16,08,14,-3.40
2018,09,16,08,15,-3.40
2018,09,16,08,16,-3.40
2018,09,16,08,17,-3.40
2018,09,16,08,18,-3.40
2018,09,16,08,19,-3.40
2018,09,16,08,20,-3.40
2018,09,16,08,21,-3.40
2018,09,16,08,22,-3.40
2018,09,16,08,23,-3.40
2018,09,16,08,24,-3.40
2018,09,16,08,25,-3.40
2018,09,16,08,26,-3.40
2018,09,16,08,27,-3.40
2018,09,16,08,28,-3.40
2018,09,16,08,29,-3.40
2018,09,16,08,30,-3.40
2018,09,16,08,31,-3.50
2018,09,16,08,32,-3.50
2018,09,16,08,33,-3.50
2018,09,16,08,34,-3.50
2018,09,16,08,35,-3.50
2018,09,16,08,36,-3.50
2018,09,16,08,37,-3.50
2018,09,16,08,38,-3.50
2018,09,16,08,39,-3.50
2018,09,16,08,40,-3.50
2018,09,16,08,41,-3.50
2018,09,16,08,42,-3.50
2018,09,16,08,43,-3.50
2018,09,16,08,44,-3.50
2018,09,16,08,45,-3.50
2018,09,16,08,46,-3.50
2018,09,16,08,47,-3.50
2018,09,16,08,48,-3.50
2018,09,16,08,49,-3.50
2018,09,16,08,50,-3.50
2018,09,16,08,51,-3.50
2018,09,16,08,52,-3.50
2018,09,16,08,53,-3.50
2018,09,16,08,54,-3.50
2018,09,16,08,55,-3.40
2018,09,16,08,56,-3.40
2018,09,16,08,57,-3.40
2018,09,16,08,58,-3.40
2018,09,16,08,59,-3.40
2018,09,16,09,00,-3.40
2018,09,16,09,01,-3.30
2018,09,16,09,02,-3.30
2018,09,16,09,03,-3.30
2018,09,16,09,04,-3.30
2018,09,16,09,05,-3.30
2018,09,16,09,06,-3.30
2018,09,16,09,07,-3.30
2018,09,16,09,08,-3.30
2018,09,16,09,09,-3.30
2018,09,16,09,10,-3.30
2018,09,16,09,11,-3.30
2018,09,16,09,12,-3.30
2018,09,16,09,13,-3.30
2018,09,16,09,14,-3.30
2018,09,16,09,15,-3.30
2018,09,16,09,16,-3.30
2018,09,16,09,17,-3.20
2018,09,16,09,18,-3.20
2018,09,16,09,19,-3.30
2018,09,16,09,20,-3.30
2018,09,16,09,21,-3.30
2018,09,16,09,22,-3.30
2018,09,16,09,23,-3.30
2018,09,16,09,24,-3.30
2018,09,16,09,25,-3.30
2018,09,16,09,26,-3.30
2018,09,16,09,27,-3.30
2018,09,16,09,28,-3.30
2018,09,16,09,29,-3.30
2018,09,16,09,30,-3.30
2018,09,16,09,31,-3.30
2018,09,16,09,32,-3.30
2018,09,16,09,33,-3.30
2018,09,16,09,34,-3.30
2018,09,16,09,35,-3.30
2018,09,16,09,36,-3.30
2018,09,16,09,37,-3.30
2018,09,16,09,38,-3.30
2018,09,16,09,39,-3.30
2018,09,16,09,40,-3.30
2018,09,16,09,41,-3.30
2018,09,16,09,42,-3.30
2018,09,16,09,43,-3.30
2018,09,16,09,44,-3.30
2018,09,16,09,45,-3.30
2018,09,16,09,46,-3.30
2018,09,16,09,47,-3.30
2018,09,16,09,48,-3.30
2018,09,16,09,49,-3.30
2018,09,16,09,50,-3.30
2018,09,16,09,51,-3.20
2018,09,16,09,52,-3.20
2018,09,16,09,53,-3.20
2018,09,16,09,54,-3.20
2018,09,16,09,55,-3.20
2018,09,16,09,56,-3.10
2018,09,16,09,57,-3.10
2018,09,16,09,58,-3.10
2018,09,16,09,59,-3.10
2018,09,16,10,00,-3.10
2018,09,16,10,01,-3.10
2018,09,16,10,02,-3.10
2018,09,16,10,03,-3.00
2018,09,16,10,04,-3.00
2018,09,16,10,05,-3.00
2018,09,16,10,06,-3.00
2018,09,16,10,07,-2.90
2018,09,16,10,08,-2.90
2018,09,16,10,09,-2.90
2018,09,16,10,10,-2.90
2018,09,16,10,11,-2.90
2018,09,16,10,12,-2.90
2018,09,16,10,13,-2.80
2018,09,16,10,14,-2.80
2018,09,16,10,15,-2.80
2018,09,16,10,16,-2.70
2018,09,16,10,17,-2.70
2018,09,16,10,18,-2.70
2018,09,16,10,19,-2.70
2018,09,16,10,20,-2.70
2018,09,16,10,21,-2.70
2018,09,16,10,22,-2.70
2018,09,16,10,23,-2.70
2018,09,16,10,24,-2.70
2018,09,16,10,25,-2.60
2018,09,16,10,26,-2.60
2018,09,16,10,27,-2.60
2018,09,16,10,28,-2.60
2018,09,16,10,29,-2.50
2018,09,16,10,30,-2.40
2018,09,16,10,31,-2.40
2018,09,16,10,32,-2.30
2018,09,16,10,33,-2.20
2018,09,16,10,34,-2.20
2018,09,16,10,35,-2.00
2018,09,16,10,36,-1.90
2018,09,16,10,37,-1.80
2018,09,16,10,38,-1.70
2018,09,16,10,39,-1.60
2018,09,16,10,40,-1.60
2018,09,16,10,41,-1.50
2018,09,16,10,42,-1.40
2018,09,16,10,43,-1.30
2018,09,16,10,44,-1.30
2018,09,16,10,45,-1.20
2018,09,16,10,46,-1.20
2018,09,16,10,47,-1.00
2018,09,16,10,48,-0.90
2018,09,16,10,49,-0.80
2018,09,16,10,50,-0.70
2018,09,16,10,51,-0.70
2018,09,16,10,52,-0.60
2018,09,16,10,53,-0.60
2018,09,16,10,54,-0.50
2018,09,16,10,55,-0.40
2018,09,16,10,56,-0.40
2018,09,16,10,57,-0.30
2018,09,16,10,58,-0.20
2018,09,16,10,59,-0.20
2018,09,16,11,00,-0.10
2018,09,16,11,01,-0.10
2018,09,16,11,02,0.00
2018,09,16,11,03,0.10
2018,09,16,11,04,0.20
2018,09,16,11,05,0.20
2018,09,16,11,06,0.30
2018,09,16,11,07,0.40
2018,09,16,11,08,0.50
2018,09,16,11,09,0.60
2018,09,16,11,10,0.70
2018,09,16,11,11,0.80
2018,09,16,11,12,0.80
2018,09,16,11,13,0.90
2018,09,16,11,14,0.90
2018,09,16,11,15,0.90
2018,09,16,11,16,1.00
2018,09,16,11,17,1.00
2018,09,16,11,18,1.10
2018,09,16,11,19,1.10
2018,09,16,11,20,1.20
2018,09,16,11,21,1.20
2018,09,16,11,22,1.30
2018,09,16,11,23,1.40
2018,09,16,11,24,1.40
2018,09,16,11,25,1.50
2018,09,16,11,26,1.60
2018,09,16,11,27,1.70
2018,09,16,11,28,1.70
2018,09,16,11,29,1.80
2018,09,16,11,30,2.00
2018,09,16,11,31,2.10
2018,09,16,11,32,2.20
2018,09,16,11,33,2.30
2018,09,16,11,34,2.40
2018,09,16,11,35,2.50
2018,09,16,11,36,2.60
2018,09,16,11,37,2.70
2018,09,16,11,38,2.80
2018,09,16,11,39,2.90
2018,09,16,11,40,3.10
2018,09,16,11,41,3.20
2018,09,16,11,42,3.30
2018,09,16,11,43,3.50
2018,09,16,11,44,3.60
2018,09,16,11,45,3.70
2018,09,16,11,46,3.80
2018,09,16,11,47,4.00
2018,09,16,11,48,4.10
2018,09,16,11,49,4.20
2018,09,16,11,50,4.30
2018,09,16,11,51,4.40
2018,09,16,11,52,4.50
2018,09,16,11,53,4.60
2018,09,16,11,54,4.70
2018,09,16,11,55,4.80
2018,09,16,11,56,4.80
2018,09,16,11,57,4.90
2018,09,16,11,58,5.00
2018,09,16,11,59,5.10
2018,09,16,12,00,5.20
2018,09,16,12,01,5.30
2018,09,16,12,02,5.30
2018,09,16,12,03,5.30
2018,09,16,12,04,5.40
2018,09,16,12,05,5.40
2018,09,16,12,06,5.40
2018,09,16,12,07,5.40
2018,09,16,12,08,5.50
2018,09,16,12,09,5.50
2018,09,16,12,10,5.60
2018,09,16,12,11,5.70
2018,09,16,12,12,5.70
2018,09,16,12,13,5.80
2018,09,16,12,14,5.80
2018,09,16,12,15,5.80
2018,09,16,12,16,5.80
2018,09,16,12,17,5.80
2018,09,16,12,18,5.90
2018,09,16,12,19,5.90
2018,09,16,12,20,5.90
2018,09,16,12,21,6.00
2018,09,16,12,22,6.10
2018,09,16,12,23,6.20
2018,09,16,12,24,6.30
2018,09,16,12,25,6.40
2018,09,16,12,26,6.50
2018,09,16,12,27,6.70
2018,09,16,12,28,6.70
2018,09,16,12,29,6.80
2018,09,16,12,30,6.80
2018,09,16,12,31,6.90
2018,09,16,12,32,6.90
2018,09,16,12,33,6.90
2018,09,16,12,34,6.90
2018,09,16,12,35,6.80
2018,09,16,12,36,6.80
2018,09,16,12,37,6.90
2018,09,16,12,38,6.90
2018,09,16,12,39,6.90
2018,09,16,12,40,6.90
2018,09,16,12,41,6.90
2018,09,16,12,42,6.90
2018,09,16,12,43,7.00
2018,09,16,12,44,7.10
2018,09,16,12,45,7.20
2018,09,16,12,46,7.40
2018,09,16,12,47,7.50
2018,09,16,12,48,7.60
2018,09,16,12,49,7.70
2018,09,16,12,50,7.70
2018,09,16,12,51,7.80
2018,09,16,12,52,7.80
2018,09,16,12,53,7.90
2018,09,16,12,54,7.90
2018,09,16,12,55,7.90
2018,09,16,12,56,7.90
2018,09,16,12,57,8.00
2018,09,16,12,58,8.00
2018,09,16,12,59,8.10
2018,09,16,13,00,8.10
2018,09,16,13,01,8.20
2018,09,16,13,02,8.20
2018,09,16,13,03,8.30
2018,09,16,13,04,8.40
2018,09,16,13,05,8.40
2018,09,16,13,06,8.50
2018,09,16,13,07,8.50
2018,09,16,13,08,8.60
2018,09,16,13,09,8.60
2018,09,16,13,10,8.70
2018,09,16,13,11,8.80
2018,09,16,13,12,8.80
2018,09,16,13,13,8.90
2018,09,16,13,14,9.00
2018,09,16,13,15,9.00
2018,09,16,13,16,9.10
2018,09,16,13,17,9.20
2018,09,16,13,18,9.30
2018,09,16,13,19,9.40
2018,09,16,13,20,9.50
2018,09,16,13,21,9.60
2018,09,16,13,22,9.70
2018,09,16,13,23,9.80
2018,09,16,13,24,9.90
2018,09,16,13,25,10.00
2018,09,16,13,26,10.10
2018,09,16,13,27,10.20
2018,09,16,13,28,10.30
2018,09,16,13,29,10.40
2018,09,16,13,30,10.50
2018,09,16,13,31,10.60
2018,09,16,13,32,10.70
2018,09,16,13,33,10.80
2018,09,16,13,34,10.90
2018,09,16,13,35,11.00
2018,09,16,13,36,11.00
2018,09,16,13,37,11.10
2018,09,16,13,38,11.20
2018,09,16,13,39,11.20
2018,09,16,13,40,11.20
2018,09,16,13,41,11.20
2018,09,16,13,42,11.30
2018,09,16,13,43,11.20
2018,09,16,13,44,11.20
2018,09,16,13,45,11.20
2018,09,16,13,46,11.20
2018,09,16,13,47,11.30
2018,09,16,13,48,11.30
2018,09,16,13,49,11.30
2018,09,16,13,50,11.30
2018,09,16,13,51,11.30
2018,09,16,13,52,11.30
2018,09,16,13,53,11.30
2018,09,16,13,54,11.30
2018,09,16,13,55,11.40
2018,09,16,13,56,11.40
2018,09,16,13,57,11.40
2018,09,16,13,58,11.40
2018,09,16,13,59,11.40
2018,09,16,14,00,11.40
2018,09,16,14,01,11.40
2018,09,16,14,02,11.40
2018,09,16,14,03,11.40
2018,09,16,14,04,11.40
2018,09,16,14,05,11.40
2018,09,16,14,06,11.40
2018,09,16,14,07,11.50
2018,09,16,14,08,11.50
2018,09,16,14,09,11.60
2018,09,16,14,10,11.60
2018,09,16,14,11,11.60
2018,09,16,14,12,11.50
2018,09,16,14,13,11.50
2018,09,16,14,14,11.50
2018,09,16,14,15,11.50
2018,09,16,14,16,11.60
2018,09,16,14,17,11.60
2018,09,16,14,18,11.60
2018,09,16,14,19,11.60
2018,09,16,14,20,11.60
2018,09,16,14,21,11.60
2018,09,16,14,22,11.70
2018,09,16,14,23,11.70
2018,09,16,14,24,11.70
2018,09,16,14,25,11.80
2018,09,16,14,26,11.80
2018,09,16,14,27,11.80
2018,09,16,14,28,11.80
2018,09,16,14,29,11.90
2018,09,16,14,30,11.90
2018,09,16,14,31,11.90
2018,09,16,14,32,11.90
2018,09,16,14,33,11.90
2018,09,16,14,34,11.90
2018,09,16,14,35,12.00
2018,09,16,14,36,12.00
2018,09,16,14,37,12.00
2018,09,16,14,38,12.00
2018,09,16,14,39,12.10
2018,09,16,14,40,12.10
2018,09,16,14,41,12.10
2018,09,16,14,42,12.10
2018,09,16,14,43,12.10
2018,09,16,14,44,12.10
2018,09,16,14,45,12.10
2018,09,16,14,46,12.10
2018,09,16,14,47,12.10
2018,09,16,14,48,12.10
2018,09,16,14,49,12.20
2018,09,16,14,50,12.20
2018,09,16,14,51,12.30
2018,09,16,14,52,12.30
2018,09,16,14,53,12.30
2018,09,16,14,54,12.40
2018,09,16,14,55,12.40
2018,09,16,14,56,12.40
2018,09,16,14,57,12.40
2018,09,16,14,58,12.50
2018,09,16,14,59,12.50
2018,09,16,15,00,12.60
2018,09,16,15,01,12.60
2018,09,16,15,02,12.70
2018,09,16,15,03,12.70
2018,09,16,15,04,12.70
2018,09,16,15,05,12.70
2018,09,16,15,06,12.70
2018,09,16,15,07,12.70
2018,09,16,15,08,12.60
2018,09,16,15,09,12.60
2018,09,16,15,10,12.60
2018,09,16,15,11,12.60
2018,09,16,15,12,12.60
2018,09,16,15,13,12.60
2018,09,16,15,14,12.50
2018,09,16,15,15,12.50
2018,09,16,15,16,12.50
2018,09,16,15,17,12.50
2018,09,16,15,18,12.40
2018,09,16,15,19,12.40
2018,09,16,15,20,12.40
2018,09,16,15,21,12.40
2018,09,16,15,22,12.30
2018,09,16,15,23,12.30
2018,09,16,15,24,12.30
2018,09,16,15,25,12.30
2018,09,16,15,26,12.30
2018,09,16,15,27,12.30
2018,09,16,15,28,12.30
2018,09,16,15,29,12.30
2018,09,16,15,30,12.30
2018,09,16,15,31,12.30
2018,09,16,15,32,12.30
2018,09,16,15,33,12.30
2018,09,16,15,34,12.30
2018,09,16,15,35,12.30
2018,09,16,15,36,12.30
2018,09,16,15,37,12.30
2018,09,16,15,38,12.30
2018,09,16,15,39,12.30
2018,09,16,15,40,12.30
2018,09,16,15,41,12.30
2018,09,16,15,42,12.30
2018,09,16,15,43,12.30
2018,09,16,15,44,12.30
2018,09,16,15,45,12.30
2018,09,16,15,46,12.30
2018,09,16,15,47,12.30
2018,09,16,15,48,12.40
2018,09,16,15,49,12.40
2018,09,16,15,50,12.40
2018,09,16,15,51,12.40
2018,09,16,15,52,12.40
2018,09,16,15,53,12.40
2018,09,16,15,54,12.40
2018,09,16,15,55,12.40
2018,09,16,15,56,12.40
2018,09,16,15,57,12.40
2018,09,16,15,58,12.50
2018,09,16,15,59,12.50
2018,09,16,16,00,12.50
2018,09,16,16,01,12.50
2018,09,16,16,02,12.60
2018,09,16,16,03,12.60
2018,09,16,16,04,12.60
2018,09,16,16,05,12.60
2018,09,16,16,06,12.60
2018,09,16,16,07,12.70
2018,09,16,16,08,12.70
2018,09,16,16,09,12.70
2018,09,16,16,10,12.70
2018,09,16,16,11,12.70
2018,09,16,16,12,12.70
2018,09,16,16,13,12.70
2018,09,16,16,14,12.70
2018,09,16,16,15,12.70
2018,09,16,16,16,12.70
2018,09,16,16,17,12.70
2018,09,16,16,18,12.70
2018,09,16,16,19,12.70
2018,09,16,16,20,12.80
2018,09,16,16,21,12.80
2018,09,16,16,22,12.80
2018,09,16,16,23,12.80
2018,09,16,16,24,12.80
2018,09,16,16,25,12.80
2018,09,16,16,26,12.80
2018,09,16,16,27,12.80
2018,09,16,16,28,12.80
2018,09,16,16,29,12.80
2018,09,16,16,30,12.80
2018,09,16,16,31,12.80
2018,09,16,16,32,12.80
2018,09,16,16,33,12.70
2018,09,16,16,34,12.70
2018,09,16,16,35,12.80
2018,09,16,16,36,12.80
2018,09,16,16,37,12.80
2018,09,16,16,38,12.90
2018,09,16,16,39,12.90
2018,09,16,16,40,13.00
2018,09,16,16,41,13.00
2018,09,16,16,42,13.10
2018,09,16,16,43,13.10
2018,09,16,16,44,13.10
2018,09,16,16,45,13.10
2018,09,16,16,46,13.10
2018,09,16,16,47,13.10
2018,09,16,16,48,13.10
2018,09,16,16,49,13.00
2018,09,16,16,50,13.00
2018,09,16,16,51,12.90
2018,09,16,16,52,12.80
2018,09,16,16,53,12.80
2018,09,16,16,54,12.80
2018,09,16,16,55,12.80
2018,09,16,16,56,12.80
2018,09,16,16,57,12.80
2018,09,16,16,58,12.80
2018,09,16,16,59,12.80
2018,09,16,17,00,12.80
2018,09,16,17,01,12.80
2018,09,16,17,02,12.80
2018,09,16,17,03,12.90
2018,09,16,17,04,12.90
2018,09,16,17,05,12.90
2018,09,16,17,06,12.90
2018,09,16,17,07,12.90
2018,09,16,17,08,12.90
2018,09,16,17,09,12.90
2018,09,16,17,10,12.90
2018,09,16,17,11,12.90
2018,09,16,17,12,12.90
2018,09,16,17,13,12.90
2018,09,16,17,14,12.90
2018,09,16,17,15,12.90
2018,09,16,17,16,12.90
2018,09,16,17,17,12.80
2018,09,16,17,18,12.80
2018,09,16,17,19,12.80
2018,09,16,17,20,12.80
2018,09,16,17,21,12.80
2018,09,16,17,22,12.80
2018,09,16,17,23,12.80
2018,09,16,17,24,12.80
2018,09,16,17,25,12.80
2018,09,16,17,26,12.80